DW0529 Weather Reports


Display with metric or nautical units.
time (UTC)temp
F
wind
direction
speed
MPH
gust
MPH
rain 1hr
in
rain 24hr
in
rain mn
in
humidity
%
barometer
mb
20260510155817 58 163 0.0 0.0 0.00 0.00 0.00 100 968.6
20260510154816 57 163 0.0 0.0 0.00 0.00 0.00 100 968.6
20260510153820 57 163 0.0 0.0 0.00 0.00 0.00 100 968.6
20260510152800 57 163 0.0 0.0 0.00 0.00 0.00 100 968.6
20260510151752 57 169 0.0 0.0 0.00 0.00 0.00 100 968.5
20260510150722 57 169 0.0 0.0 0.00 0.00 0.00 100 968.6
20260510145729 56 169 0.0 0.0 0.00 0.00 0.00 100 968.5
20260510144723 56 169 0.0 1.0 0.00 0.00 0.00 100 968.5
20260510142601 56 169 0.0 0.0 0.00 0.00 0.00 100 968.2
20260510141603 56 169 0.0 0.0 0.00 0.00 0.00 100 968.2
20260510140623 56 169 0.0 0.0 0.00 0.00 0.00 100 968.1
20260510135645 56 169 0.0 0.0 0.00 0.00 0.00 100 968.1
20260510134636 56 169 0.0 0.0 0.00 0.00 0.00 100 968.0
20260510133640 56 169 0.0 1.0 0.00 0.00 0.00 100 967.9
20260510132649 55 169 0.0 1.0 0.00 0.00 0.00 99 967.9
20260510131701 55 169 0.0 0.0 0.00 0.00 0.00 99 967.8
20260510125556 55 169 0.0 1.0 0.00 0.00 0.00 99 967.8
20260510124538 55 169 0.0 0.0 0.00 0.00 0.00 99 967.9
20260510123519 55 169 0.0 0.0 0.00 0.00 0.00 99 967.8
20260510122454 55 171 0.0 0.0 0.00 0.00 0.00 99 968.0
20260510121449 55 188 0.0 0.0 0.00 0.00 0.00 99 967.9
20260510120432 55 223 0.0 0.0 0.00 0.00 0.00 99 967.8
20260510115416 55 223 0.0 0.0 0.00 0.00 0.00 99 967.8
20260510113237 55 223 0.0 0.0 0.00 0.00 0.00 98 967.8
20260510112216 55 223 0.0 0.0 0.00 0.00 0.00 98 967.8
20260510111201 55 223 0.0 0.0 0.00 0.00 0.00 98 967.6
20260510105042 55 223 0.0 0.0 0.00 0.00 0.00 98 967.7
20260510104055 55 223 0.0 0.0 0.00 0.00 0.00 98 967.6
20260510103028 55 223 0.0 0.0 0.00 0.00 0.00 98 967.7
20260510100931 55 223 0.0 0.0 0.00 0.00 0.00 98 967.7
20260510095912 55 223 0.0 0.0 0.00 0.00 0.00 98 967.8
20260510094912 55 223 0.0 1.0 0.00 0.00 0.00 98 967.9
20260510093928 55 223 0.0 1.0 0.00 0.00 0.00 98 967.9
20260510092949 55 223 0.0 1.0 0.00 0.00 0.00 97 967.9
20260510092001 55 223 0.0 0.0 0.00 0.00 0.00 97 967.9
20260510090928 55 223 0.0 0.0 0.00 0.00 0.00 97 967.9
20260510085940 55 223 0.0 0.0 0.00 0.00 0.00 96 967.8
20260510082613 55 223 0.0 0.0 0.00 0.00 0.00 94 967.8
20260510074307 57 223 0.0 0.0 0.00 0.00 0.00 93 968.2
20260510073323 57 223 0.0 0.0 0.00 0.00 0.00 92 968.3
20260510072319 57 223 0.0 0.0 0.00 0.00 0.00 92 968.3
20260510071320 57 223 0.0 0.0 0.00 0.00 0.00 92 968.2
20260510070336 57 223 0.0 0.0 0.00 0.00 0.00 91 968.3
20260510065323 57 223 0.0 0.0 0.00 0.00 0.00 90 968.3
20260510064329 57 223 0.0 0.0 0.00 0.00 0.00 90 968.3
20260510062209 57 223 0.0 0.0 0.00 0.00 0.00 88 968.1
20260510060056 58 223 0.0 0.0 0.00 0.00 0.00 87 968.4
20260510055109 58 223 0.0 0.0 0.00 0.00 0.00 87 968.3
20260510052906 59 223 0.0 0.0 0.00 0.00 0.00 89 968.4
20260510050742 57 223 0.0 0.0 0.00 0.00 0.00 93 968.4
20260510045737 57 223 0.0 0.0 0.00 0.00 0.00 94 968.4
20260510044737 57 223 0.0 0.0 0.00 0.00 0.00 95 968.3
20260510043747 56 223 0.0 0.0 0.00 0.00 0.00 95 968.2
20260510042803 56 223 0.0 0.0 0.00 0.00 0.00 95 968.1
20260510041752 56 223 0.0 0.0 0.00 0.00 0.00 95 968.0
20260510040751 56 223 0.0 0.0 0.00 0.00 0.00 94 967.8
20260510035731 56 223 0.0 0.0 0.00 0.00 0.00 94 967.7
20260510034736 56 223 0.0 0.0 0.00 0.00 0.00 94 967.7
20260510031421 57 223 0.0 0.0 0.00 0.00 0.00 91 967.4
20260510025255 58 223 0.0 0.0 0.00 0.00 0.00 89 967.2
20260510024227 58 223 0.0 2.0 0.00 0.00 0.00 88 967.1
20260510023211 59 223 0.0 2.0 0.00 0.00 0.00 86 967.1
20260510021041 62 223 0.0 1.0 0.00 0.00 0.00 80 966.9
20260510020059 62 223 0.0 0.0 0.00 0.00 0.00 80 966.9
20260510015124 62 223 0.0 3.0 0.00 0.00 0.00 81 966.8
20260510014127 62 223 0.0 3.0 0.00 0.00 0.00 80 966.9
20260510013053 63 225 0.0 3.0 0.00 0.00 0.00 79 966.8
20260510012022 64 223 1.0 4.0 0.00 0.00 0.00 77 966.8
20260510010954 65 209 0.0 4.0 0.00 0.00 0.00 74 966.8
20260510010008 66 234 1.0 4.0 0.00 0.00 0.00 73 966.8
20260510003858 67 220 1.0 5.0 0.00 0.00 0.00 71 966.7
20260510002919 68 228 1.0 5.0 0.00 0.00 0.00 69 966.7
20260510001916 70 229 1.0 6.0 0.00 0.00 0.00 66 966.7
20260510000919 71 184 0.0 6.0 0.00 0.00 0.00 63 966.7
20260509235926 72 211 1.0 5.0 0.00 0.00 0.00 63 966.7
20260509234908 73 174 1.0 6.0 0.00 0.00 0.00 61 966.7
20260509233837 73 198 1.0 6.0 0.00 0.00 0.00 61 966.7
20260509231759 74 223 0.0 3.0 0.00 0.00 0.00 58 966.6
20260509225642 74 227 1.0 6.0 0.00 0.00 0.00 59 966.7
20260509224639 73 142 1.0 6.0 0.00 0.00 0.00 59 966.9
20260509223639 73 184 1.0 4.0 0.00 0.00 0.00 59 967.1
20260509221519 73 242 0.0 4.0 0.00 0.00 0.00 60 967.4
20260509220532 73 237 1.0 4.0 0.00 0.00 0.00 60 967.5
20260509215527 73 203 1.0 5.0 0.00 0.00 0.00 59 967.6
20260509214504 74 232 1.0 5.0 0.00 0.00 0.00 58 967.6
20260509213448 75 234 0.0 6.0 0.00 0.00 0.00 58 967.7
20260509211337 74 191 1.0 5.0 0.00 0.00 0.00 58 967.9
20260509210304 74 153 1.0 4.0 0.00 0.00 0.00 59 968.1
20260509205312 74 238 1.0 5.0 0.00 0.00 0.00 59 968.1
20260509204259 74 213 1.0 5.0 0.00 0.00 0.00 58 968.3
20260509203250 74 246 1.0 5.0 0.00 0.00 0.00 60 968.3
20260509202236 74 215 0.0 4.0 0.00 0.00 0.00 60 968.3
20260509200108 73 219 1.0 4.0 0.00 0.00 0.00 62 968.4
20260509195105 73 219 0.0 8.0 0.00 0.00 0.00 62 968.4
20260509194126 73 209 1.0 8.0 0.00 0.00 0.00 64 968.4
20260509193115 73 204 1.0 5.0 0.00 0.00 0.00 63 968.6
20260509191023 72 225 1.0 5.0 0.00 0.00 0.00 64 968.8
20260509185949 72 228 1.0 6.0 0.00 0.00 0.00 67 968.8
20260509184919 72 220 1.0 6.0 0.00 0.00 0.00 65 968.9
20260509183851 71 199 1.0 5.0 0.00 0.00 0.00 66 968.9
20260509182851 71 215 1.0 5.0 0.00 0.00 0.00 67 968.9
20260509181903 70 224 1.0 4.0 0.00 0.00 0.00 68 969.0
20260509180834 70 169 1.0 4.0 0.00 0.00 0.00 68 969.1
20260509175812 68 178 1.0 5.0 0.00 0.00 0.00 72 969.2
20260509174737 68 229 1.0 5.0 0.00 0.00 0.00 72 969.2
20260509173744 67 206 0.0 3.0 0.00 0.00 0.00 74 969.2
20260509172710 65 196 0.0 4.0 0.00 0.00 0.00 80 969.1
20260509171647 64 154 0.0 4.0 0.00 0.00 0.00 91 969.1
20260509170706 63 173 0.0 2.0 0.00 0.00 0.00 98 969.0
20260509165642 61 215 0.0 3.0 0.00 0.00 0.00 99 968.9
20260509164641 61 207 0.0 2.0 0.00 0.00 0.00 100 968.9
20260509162504 58 219 0.0 0.0 0.00 0.00 0.00 100 969.1
20260509161502 58 219 0.0 0.0 0.00 0.00 0.00 100 969.0
20260509160520 58 219 0.0 0.0 0.00 0.00 0.00 100 969.2